Simultaneous Nadir Overpasses (SNOs) Predictions

Prediction of SNOs between METOP-A and NOAA-19 Satellite Orbit:

Table of predicted SNOs for the next 14.0 days since TLE Epoch: 10/29/2011
Index Date Time (METOP-A) METOP-A Lat,Lon NOAA-19 Lat,Lon Distance(km) Time Diff (sec)
1 11/02/2011 03:47:01 76.28, 124.44 76.26, 106.75 465.35 9
2 11/02/2011 04:38:15 -74.79, -72.97 -74.77, -81.23 240.85 49
3 11/02/2011 05:29:12 73.93, 92.11 73.92, 88.28 117.93 64
4 11/02/2011 06:20:11 -73.09,-102.50 -73.07,-102.50 2.44 74
5 11/02/2011 07:10:51 73.06, 64.76 73.04, 64.81 2.44 55
6 11/02/2011 08:01:34 -73.03,-127.99 -73.04,-127.94 1.86 32
7 11/02/2011 08:52:13 73.04, 39.38 73.01, 39.37 3.66 12
8 11/02/2011 09:42:56 -73.01,-153.37 -73.00,-153.39 1.10 11
9 11/02/2011 10:33:36 72.97, 13.89 72.97, 13.93 1.44 30
10 11/02/2011 11:24:19 -72.94,-178.86 -72.96,-178.83 2.77 53
11 11/02/2011 12:14:58 72.95, -11.49 72.93, -11.51 2.33 73
12 11/02/2011 13:05:58 -72.05, 154.01 -72.12, 157.40 116.19 63
13 11/02/2011 13:56:54 71.18, -40.25 71.21, -33.67 235.95 49
14 11/02/2011 14:48:06 -69.63, 124.59 -69.70, 136.03 441.59 14
15 11/11/2011 22:36:12 75.84,-159.32 75.85,-174.08 400.66 23
16 11/11/2011 23:27:19 -74.66, 4.45 -74.67, -3.23 225.72 51
17 11/12/2011 00:18:17 73.74, 169.45 73.77, 166.36 96.09 66
18 11/12/2011 01:09:13 -73.06, -24.80 -73.07, -24.78 1.86 72
19 11/12/2011 01:59:52 73.07, 142.57 73.04, 142.53 3.26 50
20 11/12/2011 02:50:35 -73.04, -50.18 -73.04, -50.22 1.39 29




NCC Satellite Simultaneous Nadir Overpasses (SNOs) Prediction Service
